This demonstration page uses our WeatherBlox Daily Observations layout. Learn more.

Left ArrowRight Arrow

36.19886, -115.1175

Hourly Observations for February 16, 2021

Temp ( °F °C ) Dew Point ( °F °C ) Humidity (%) Winds ( mph kmh ) Pressure ( in mb ) Visibility ( mi km ) Precip ( " mm )
12:53 am 00:53 Clear 54 12.2 31 -0.6 42 42 N 3 6 29.75 1007 10 16 N/A
1:53 am 01:53 Clear 54 12.2 33 0.6 45 45 NW 14 22 29.75 1007 10 16 N/A
2:53 am 02:53 Clear 56 13.3 27 -2.8 33 33 NNW 20 31 29.75 1007 10 16 N/A
3:53 am 03:53 Clear 56 13.3 12 -11.1 17 17 NW 20 31 29.76 1008 10 16 N/A
4:53 am 04:53 Clear 57 13.9 14 -10 18 18 NW 23 37 29.79 1009 10 16 N/A
5:53 am 05:53 Clear 55 12.8 14 -10 20 20 WNW 20 31 29.82 1010 10 16 N/A
6:53 am 06:53 Sunny 54 12.2 12 -11.1 19 19 NW 17 28 29.84 1010 10 16 N/A
7:53 am 07:53 Sunny 56 13.3 12 -11.1 17 17 NNW 14 22 29.86 1011 10 16 N/A
8:53 am 08:53 Sunny 58 14.4 14 -10 18 18 NNW 22 35 29.87 1012 10 16 N/A
9:53 am 09:53 Sunny 59 15 15 -9.4 18 18 NNW 18 30 29.88 1012 10 16 0.00 0.00
10:53 am 10:53 Sunny 61 16.1 14 -10 16 16 NNW 23 37 29.87 1012 10 16 N/A
11:53 am 11:53 Sunny 62 16.7 13 -10.6 14 14 NNW 24 39 29.85 1011 10 16 N/A
12:53 pm 12:53 Sunny 63 17.2 11 -11.7 13 13 N 21 33 29.83 1010 10 16 N/A
1:53 pm 13:53 Sunny 64 17.8 12 -11.1 13 13 NNW 15 24 29.82 1010 10 16 N/A
2:53 pm 14:53 Sunny 64 17.8 13 -10.6 13 13 NNW 15 24 29.81 1010 10 16 N/A
3:53 pm 15:53 Sunny 64 17.8 13 -10.6 13 13 NW 14 22 29.80 1009 10 16 N/A
4:53 pm 16:53 Sunny 62 16.7 13 -10.6 14 14 NW 17 28 29.80 1009 10 16 N/A
5:53 pm 17:53 Clear 60 15.6 13 -10.6 16 16 NW 12 19 29.83 1010 10 16 N/A
6:53 pm 18:53 Clear 59 15 14 -10 17 17 NNW 16 26 29.85 1011 10 16 N/A
7:53 pm 19:53 Clear 58 14.4 14 -10 18 18 NNW 20 31 29.85 1011 10 16 N/A
8:53 pm 20:53 Clear 57 13.9 15 -9.4 19 19 N 6 9 29.88 1012 10 16 N/A
9:53 pm 21:53 Clear 53 11.7 15 -9.4 22 22 ENE 13 20 29.91 1013 10 16 N/A
10:53 pm 22:53 Clear 52 11.1 14 -10 22 22 NE 5 7 29.93 1013 10 16 N/A
11:53 pm 23:53 Clear 52 11.1 15 -9.4 23 23 NW 12 19 29.93 1014 10 16 N/A

Powered by AerisWeather